STARLINK-11183, 60189

Orbit data source: Space-Track

STARLINK-11183, 60189 is a payload satellite in LEO that was launched on Wed, 03 Jul 2024 UTC via an FALCON 9 launch vehicle from the Air Force Eastern Test Range (AFETR). Payload-class satellites include a variety of spacecraft equipped with specific instruments for various scientific and technological missions. These include communications satellites like Starlink; space stations such as the ISS; scientific satellites like the Hubble; Earth observation satellites from companies like Planet Labs, Umbra, and HawkEye 360; GPS; miniature CubeSats for education and research; and military/defense satellites.

Loading next visibility...
Identifier
60189, 2024-124G
Orbit
LEO
Last TLE update
10 hours ago
Origin
Manufacturer
SpaceX/Seattle
Mission
Operational Commercial Communications
Bus & Motor
STARLINK V2M, Unknown motor
Mass
730 kg wet, ~700 kg dry
Launch date (UTC)
2024-07-03 (11 months ago)
Launch vehicle
FALCON 9
Launch site
Air Force Eastern Test Range (AFETR)
Object type
Payload
Rocket body
Debris
Shape & HBR
Box + 2 Pan, 29 m
Radar Cross Section
36.964 m², Large (>1 m²)

Expand to show TLE details & history

TLE from 10 hours ago
0 STARLINK-11183
1 60189U 24124G   25139.11616038 -.00001798  00000-0 -99921-5 0  9995
2 60189  53.1592 173.7122 0000419  38.9720 321.1328 15.69713021 51222
Epoch: 2025-05-19T02:47Z
TLE epoch observation values (Epoch: 2025-05-19T02:47:16.256Z)
Latitude
-0.00004°
Longitude
-105.13896°
Altitude
360.413 km
Speed
7.694 km/s
True Right ascension
11h 34m 50s
True Declination
0° 00' 00"
Sunlit
Object was in full shadow at epoch
Visualization orbit readout
Latitude
48.09761°
Longitude
16.75529°
Altitude
365.003 km
Speed
7.696 km/s
Apparent Right ascension
13h 43m 20s
Apparent Declination
25° 38' 23"
Sunlit
Object is in daylight
Visualization observer readout
Local Sidereal Time
21:15:05
Azimuth
303.872° NW
Elevation
0.469°
Doppler factor
1
Orbital elements
Apogee altitude
360.261 km
Perigee altitude
359.697 km
Semi-major axis
6,738.116 km
Eccentricity
0.00004
Inclination
53.1592°
RAAN
173.7122°
Arg. of periapsis
38.972°
True anomaly
Unknown
Mean anomaly
321.1328°
Eccentric anomaly
Unknown
Mean motion
3.92406 °/min
Orbital period
91.74 mins
BSTAR
-0.0000099921
Loading maneuver chart data...
Loading SW <> Apogee altitude chart data...
Loading historical data...
Loading historical data...
Loading historical data...
Loading historical data...
Loading historical data...
Loading historical data...
Loading historical data...

STARLINK-11183 Visibility forecast

Observer location: undefined°, undefined°

Span
Click to sort rows by Start time (UTC) header in descending order
Start Az.
Max El. time (UTC)
Max El. Az.
Max El.
End time (UTC)
End Az.
5 mins2025-05-19 12:27:50.548Z296.418° NW2025-05-19 12:30:50.548Z211.791° SW32.376°2025-05-19 12:32:50.548Z157.743° S
4 mins2025-05-20 04:57:50.548Z233.389° WSW2025-05-20 04:59:50.548Z30.145° NE42.976°2025-05-20 05:01:50.548Z47.822° ENE
4 mins2025-05-20 11:22:50.548Z326.41° NNW2025-05-20 11:23:50.548Z356.22° N37.633°2025-05-20 11:26:50.548Z117.451° SE
|